Satellite: HRBE Catalog number: 37855 Epoch time: 14037.88688568 Element set: 711 Inclination: 101.7155 deg RA of node: 006.6747 deg Eccentricity: 0.0226290 Arg of perigee: 071.8067 deg Mean anomaly: 344.4255 deg Mean motion: 14.87070806 rev/day Decay rate: 1.3517e-04 rev/day^2 Epoch rev: 12329 Checksum: 318
Satellite: RS-39 Catalog number: 38051 Epoch time: 14037.81221610 Element set: 234 Inclination: 051.6308 deg RA of node: 150.8419 deg Eccentricity: 0.0008378 Arg of perigee: 028.4178 deg Mean anomaly: 109.8735 deg Mean motion: 15.43435795 rev/day Decay rate: 5.0854e-04 rev/day^2 Epoch rev: 11386 Checksum: 309
Satellite: E-STAR Catalog number: 38079 Epoch time: 14037.84625152 Element set: 735 Inclination: 069.4654 deg RA of node: 327.6437 deg Eccentricity: 0.0490431 Arg of perigee: 180.4766 deg Mean anomaly: 179.5805 deg Mean motion: 14.77474009 rev/day Decay rate: 8.2286e-04 rev/day^2 Epoch rev: 10400 Checksum: 326
Satellite: GOLIAT Catalog number: 38085 Epoch time: 14037.89791255 Element set: 786 Inclination: 069.4711 deg RA of node: 332.1191 deg Eccentricity: 0.0503965 Arg of perigee: 182.8715 deg Mean anomaly: 239.8030 deg Mean motion: 14.73827012 rev/day Decay rate: 5.4498e-04 rev/day^2 Epoch rev: 10388 Checksum: 331
Satellite: HORYU-2 Catalog number: 38340 Epoch time: 14037.79938683 Element set: 754 Inclination: 098.2461 deg RA of node: 352.9810 deg Eccentricity: 0.0011447 Arg of perigee: 228.2686 deg Mean anomaly: 131.7582 deg Mean motion: 14.71777408 rev/day Decay rate: 2.524e-05 rev/day^2 Epoch rev: 9261 Checksum: 326
Satellite: RS-40 Catalog number: 38735 Epoch time: 14036.95958559 Element set: 479 Inclination: 082.4752 deg RA of node: 009.3582 deg Eccentricity: 0.0016440 Arg of perigee: 177.1975 deg Mean anomaly: 182.9197 deg Mean motion: 12.42556120 rev/day Decay rate: 2.4e-07 rev/day^2 Epoch rev: 6928 Checksum: 333
Satellite: PROITERES Catalog number: 38756 Epoch time: 14037.79245752 Element set: 556 Inclination: 098.2342 deg RA of node: 123.9590 deg Eccentricity: 0.0013681 Arg of perigee: 082.1361 deg Mean anomaly: 278.1400 deg Mean motion: 14.74624736 rev/day Decay rate: 1.194e-05 rev/day^2 Epoch rev: 7596 Checksum: 314
Satellite: BEESAT-3 Catalog number: 39134 Epoch time: 14037.48101568 Element set: 493 Inclination: 064.8752 deg RA of node: 191.5800 deg Eccentricity: 0.0015292 Arg of perigee: 328.7823 deg Mean anomaly: 031.2391 deg Mean motion: 15.02843917 rev/day Decay rate: 6.919e-05 rev/day^2 Epoch rev: 4400 Checksum: 296
Satellite: BEESAT-2 Catalog number: 39136 Epoch time: 14037.76922357 Element set: 484 Inclination: 064.8743 deg RA of node: 190.8352 deg Eccentricity: 0.0015739 Arg of perigee: 330.4247 deg Mean anomaly: 029.5983 deg Mean motion: 15.02541558 rev/day Decay rate: 6.597e-05 rev/day^2 Epoch rev: 4404 Checksum: 324
Satellite: CAPE-2 Catalog number: 39380 Epoch time: 14036.76450302 Element set: 82 Inclination: 040.5169 deg RA of node: 158.1040 deg Eccentricity: 0.0002477 Arg of perigee: 142.3299 deg Mean anomaly: 217.7693 deg Mean motion: 15.21653834 rev/day Decay rate: 6.498e-05 rev/day^2 Epoch rev: 1184 Checksum: 293
Satellite: TRLBLAZER Catalog number: 39382 Epoch time: 14037.62722062 Element set: 98 Inclination: 040.5042 deg RA of node: 151.3353 deg Eccentricity: 0.0003586 Arg of perigee: 034.8409 deg Mean anomaly: 325.2736 deg Mean motion: 15.26439962 rev/day Decay rate: 4.6441e-04 rev/day^2 Epoch rev: 1198 Checksum: 290
Satellite: ZACUBE-1 Catalog number: 39417 Epoch time: 14037.15492654 Element set: 211 Inclination: 097.7883 deg RA of node: 112.2476 deg Eccentricity: 0.0062654 Arg of perigee: 309.0792 deg Mean anomaly: 050.4873 deg Mean motion: 14.77400997 rev/day Decay rate: 2.133e-05 rev/day^2 Epoch rev: 1134 Checksum: 300
Satellite: TRITON-1 Catalog number: 39427 Epoch time: 14037.13112102 Element set: 64 Inclination: 097.7804 deg RA of node: 110.6880 deg Eccentricity: 0.0118979 Arg of perigee: 307.8172 deg Mean anomaly: 051.2309 deg Mean motion: 14.64788197 rev/day Decay rate: 1.451e-05 rev/day^2 Epoch rev: 1120 Checksum: 283
Satellite: DELFIN3XT Catalog number: 39428 Epoch time: 14037.26368537 Element set: 68 Inclination: 097.7770 deg RA of node: 110.5103 deg Eccentricity: 0.0129901 Arg of perigee: 307.6678 deg Mean anomaly: 051.2810 deg Mean motion: 14.62330244 rev/day Decay rate: 2.311e-05 rev/day^2 Epoch rev: 1119 Checksum: 278
Satellite: GOMX-1 Catalog number: 39430 Epoch time: 14037.71874778 Element set: 201 Inclination: 097.7751 deg RA of node: 110.2184 deg Eccentricity: 0.0157238 Arg of perigee: 307.4925 deg Mean anomaly: 051.2063 deg Mean motion: 14.56242564 rev/day Decay rate: 1.336e-05 rev/day^2 Epoch rev: 1122 Checksum: 280
Satellite: $50SAT Catalog number: 39436 Epoch time: 14037.58746522 Element set: 79 Inclination: 097.7901 deg RA of node: 113.5460 deg Eccentricity: 0.0028941 Arg of perigee: 320.7910 deg Mean anomaly: 039.1238 deg Mean motion: 14.85440170 rev/day Decay rate: 1.1946e-04 rev/day^2 Epoch rev: 1145 Checksum: 298
Satellite: PUCPSAT-1 Catalog number: 39442 Epoch time: 14036.83105638 Element set: 58 Inclination: 097.7925 deg RA of node: 112.8510 deg Eccentricity: 0.0034857 Arg of perigee: 318.3691 deg Mean anomaly: 041.4876 deg Mean motion: 14.85041843 rev/day Decay rate: 2.744e-05 rev/day^2 Epoch rev: 1012 Checksum: 297
/EX
participants (1)
-
Ray Hoad